{"data":{"norad_id":66288,"intl_designator":"2025-247Z","name":"STARLINK-34896","alt_names":[],"object_type":"PAYLOAD","status":"ACTIVE","operator":null,"country":"US","launch_date":"2025-10-31","launch_site_code":"AFWTR","launch_vehicle":null,"mission":null,"orbit_class":"UNKNOWN","rcs_meters":null,"size_class":null,"mass_kg":null,"dimensions":null,"purposes":["comms"],"wikipedia_slug":null,"has_3d_model":false,"image_url":null,"decayed_at":null,"tle_current":{"epoch":"2026-09-20T13:30:35.931168Z","epoch_age_seconds":91222,"freshness":"FRESH","line1":"1 66288U 25247Z   26263.56291587  .00025546  00000+0  76435-3 0  9991","line2":"2 66288  53.1587   1.7338 0000996  87.3413 272.7703 15.34412003 50931","mean_motion":15.34412003,"eccentricity":9.96e-5,"inclination_deg":53.1587,"raan_deg":1.7338,"arg_perigee_deg":87.3413,"mean_anomaly_deg":272.7703,"bstar":0.00076435,"rev_number":5093,"period_min":93.847023953449,"perigee_km":461.98622085948,"apogee_km":463.34890912882,"semimajor_km":6840.8045649941,"source":"CELESTRAK","updated_at":"2026-09-21T09:00:35.871584Z"}}}